Regional Weather Roundup
Issued by NWS

Home | Current Version | Previous Version | Graphics & Text | Print | Product List | Glossary On
Versions: 1 2 3 4 5 6 7 8 9 10 11 12 13 14 15 16 17 18 19 20 21 22 23 24 25 26 27 28 29 30 31 32 33 34 35 36 37 38 39 40 41 42 43 44 45 46 47 48 49 50
000
ASUS43 KBIS 220110
RWRND

NORTH DAKOTA REGIONAL WEATHER ROUNDUP
NATIONAL WEATHER SERVICE BISMARCK ND
800 PM CDT SUN SEP 21 2014

NOTE: "FAIR" INDICATES FEW OR NO CLOUDS BELOW 12,000 FEET WITH NO
SIGNIFICANT WEATHER AND/OR OBSTRUCTIONS TO VISIBILITY.


NDZ001>003-009>011-017-220200-
NORTHWEST NORTH DAKOTA

CITY           SKY/WX    TMP DP  RH WIND       PRES   REMARKS
WILLISTON      CLEAR     66  36  32 SE3       30.17F
MINOT          CLEAR     64  41  42 CALM      30.17F
MINOT AFB      CLEAR     62  44  51 SW5       30.17S
$$

NDZ018>021-031>035-040>046-220200-
SOUTHWEST NORTH DAKOTA

CITY           SKY/WX    TMP DP  RH WIND       PRES   REMARKS
BISMARCK       CLEAR     61  44  53 SE3       30.21F
DICKINSON      CLEAR     66  35  31 E5        30.20F
GARRISON         N/A     58  44  60 W5        30.19F
HETTINGER ARPT CLEAR     61  37  41 SE5       30.23F
$$

NDZ004>008-012>016-024-026-027-054-220200-
NORTHEAST NORTH DAKOTA

CITY           SKY/WX    TMP DP  RH WIND       PRES   REMARKS
GRAND FORKS    CLEAR     59  50  72 SE5       30.18F
GRND FRKS AFB  CLEAR     56  50  82 S6        30.19S
DEVILS LAKE    CLEAR     61  48  63 SW5       30.17S
$$

NDZ022-023-025-028>030-036>039-047>053-220200-
SOUTHEAST NORTH DAKOTA

CITY           SKY/WX    TMP DP  RH WIND       PRES   REMARKS
FARGO          CLEAR     56  50  80 E7        30.21R
JAMESTOWN      CLEAR     57  49  74 CALM      30.20S
$$



USA.gov is the U.S. government's official web portal to all federal, state and local government web resources and services.